[[{"header":{"parameterUnit":"m.s-1","parameterCategory":1,"la1":30.2991,"la2":30.254,"lo1":-89.0895,"lo2":-89.0444,"dy":0.0017,"dx":0.0017,"nx":28,"ny":28,"refTime":"2023-08-09T09:00:00:Z","depth":0,"parameterNumber":2,"parameterNumberName":"U-component_of_WINDS"},"data":[0,0,0,0,0,0,0,0,0,0,0,0,0,0,0,0,0,0,0,0,0,0,0,0,0,0,0,0,0,0,0,0,0,0,0,0,0,0,0,0,0,0,0,0,0,0,0,0,0,0,0,0,0,0,0,0,0,0,3.1124,3.1123,0,3.111,3.111,3.111,3.1011,3.1009,3.1006,3.1004,3.0991,3.0993,3.0995,0,0,0,0,0,0,0,0,0,0,0,0,0,3.1064,3.1065,3.1124,3.1123,3.1123,3.111,3.111,3.111,3.1012,3.1009,3.1006,3.1003,3.099,3.0993,3.0995,0,0,0,0,0,0,0,0,0,0,0,0,0,3.1074,3.1066,3.1124,3.1073,3.1068,3.111,3.111,3.111,3.1012,3.1009,3.1005,3.1002,3.099,3.0992,3.0995,3.1085,0,0,3.1004,3.1005,0,0,0,0,0,0,0,0,3.1074,3.1076,3.108,3.1076,3.1071,3.1059,3.1084,3.1102,3.1013,3.1034,3.1004,3.1,3.1016,3.1017,3.1022,3.1085,3.1084,3.1004,3.1006,3.1007,3.1008,0,0,0,0,0,0,0,3.1073,3.1076,3.1118,3.108,3.1075,3.105,3.1048,3.1087,3.1046,3.1031,3.1024,3.1024,3.1013,3.102,3.1021,3.1084,3.1004,3.1007,3.1008,3.1009,3.1217,3.1221,0,0,0,0,0,0,3.1079,3.1076,3.1119,3.1118,3.1063,3.1054,3.1052,3.1066,3.1045,3.1038,3.1027,3.1019,3.1017,3.1018,3.102,3.1122,3.1007,3.101,3.1011,3.1214,3.1218,3.1222,0,0,0,0,0,0,3.1078,3.1084,3.1119,3.1095,3.1098,3.1059,3.1077,3.1068,3.1074,3.1042,3.1034,3.1041,3.1014,3.1016,3.1069,3.112,3.1011,3.1014,3.1209,3.1215,3.122,3.1328,0,0,0,0,0,0,3.1077,3.1084,3.1118,3.1097,3.1099,3.1169,3.108,3.107,3.108,3.1069,3.1053,3.1047,3.1011,3.1066,3.1072,3.1122,3.1016,3.1204,3.1212,3.1219,3.1319,3.1336,3.1351,0,0,0,0,0,3.1075,3.115,3.112,3.1126,3.1141,3.1172,3.1173,3.1131,3.1084,3.1117,3.1096,3.1047,3.1115,3.1072,3.1078,3.113,3.1201,3.121,3.1218,3.1312,3.1333,3.1351,0,0,0,0,0,0,3.1178,3.1146,3.1113,3.1183,3.1181,3.1155,3.1196,3.1155,3.1166,3.1156,3.1103,3.1101,3.1161,3.1151,3.1104,3.1215,3.1149,3.116,3.1219,3.1238,3.1254,3.1253,3.1018,0,0,0,0,0,3.1209,3.1237,3.1207,3.1271,3.1272,3.1235,3.1247,3.1214,3.121,3.1209,3.1191,3.1189,3.1209,3.1224,3.1241,3.1319,3.1312,3.1358,3.1374,3.1387,3.1395,3.1433,3.1452,3.1251,3.1251,3.125,0,0,3.1273,3.1259,3.1279,3.1292,3.1286,3.1315,3.1234,3.1269,3.129,3.1214,3.1261,3.125,3.1244,3.1309,3.1337,3.1302,3.145,3.1398,3.1408,3.1409,3.1444,3.1463,3.148,3.1256,3.1255,3.1254,0,0,3.1403,3.1397,3.1447,3.1444,3.1437,3.1411,3.1424,3.1405,3.1393,3.1441,3.1383,3.1408,3.1445,3.1442,3.1446,3.1576,3.153,3.1583,3.1664,3.1702,3.1718,3.1731,3.1775,3.1791,3.1593,3.1593,3.1593,0,3.1483,3.1524,3.1479,3.1517,3.1523,3.1456,3.1507,3.1506,3.1505,3.1511,3.1473,3.1517,3.1509,3.1571,3.1602,3.1609,3.162,3.1583,3.1719,3.1733,3.1745,3.1785,3.1802,3.1599,3.1598,3.1598,3.1597,0,3.1621,3.1651,3.1694,3.1693,3.1705,3.175,3.1711,3.1728,3.1695,3.1674,3.1723,3.1711,3.1723,3.1736,3.1705,3.1794,3.1773,3.1729,3.166,3.1771,3.1808,3.1823,3.1608,3.1606,3.1604,3.1602,0,0,3.1813,3.1788,3.1804,3.1802,3.1789,3.1811,3.1853,3.1865,3.1879,3.1882,3.1914,3.1947,3.1905,3.191,3.1878,3.1912,3.2012,3.1863,3.1862,3.1888,3.2106,3.2137,3.2155,3.1983,3.1986,3.1988,3.2105,0,3.1935,3.2003,3.1964,3.2037,3.2063,3.2,3.2036,3.2032,3.2014,3.2033,3.2013,3.2036,3.1981,3.1983,3.2014,3.1993,3.2054,3.1985,3.201,3.2012,3.201,3.2175,3.2208,3.2319,3.212,3.2122,3.2124,0,3.2086,3.2093,3.2169,3.215,3.2159,3.2192,3.2199,3.2219,3.2213,3.2198,3.2203,3.2163,3.2201,3.2137,3.2189,3.2142,3.2151,3.2143,3.2146,3.2144,3.2072,3.2174,3.2353,3.2369,3.2147,3.2145,3.2144,0,3.2213,3.2243,3.2291,3.2293,3.2273,3.2297,3.229,3.2281,3.229,3.2297,3.2302,3.2314,3.232,3.233,3.2294,3.2251,3.235,3.2283,3.2336,3.2337,3.2356,3.2355,3.2536,3.2369,3.2369,3.2368,3.2368,0,3.2351,3.2399,3.2348,3.2378,3.2429,3.2385,3.2437,3.2424,3.2416,3.2441,3.239,3.2415,3.2368,3.2388,3.2361,3.2406,3.241,3.2398,3.2389,3.24,3.2401,3.2402,3.2392,3.2373,3.2372,3.2371,3.237,0,3.2501,3.2469,3.2517,3.2495,3.249,3.2529,3.2509,3.2535,3.2514,3.2547,3.2552,3.2519,3.254,3.2506,3.2524,3.2506,3.2568,3.2549,3.2569,3.2562,3.2616,3.261,3.2801,3.2822,3.2645,3.2647,3.2648,0,3.2589,3.2624,3.2605,3.2618,3.2614,3.2636,3.2645,3.2603,3.2614,3.2611,3.2637,3.2654,3.2664,3.2701,3.2678,3.2692,3.2671,3.2737,3.2672,3.2682,3.2667,3.2664,3.2666,3.2749,3.2751,3.2753,3.2754,0,3.2747,3.273,3.2744,3.2753,3.2765,3.2771,3.2773,3.2787,3.2742,3.2758,3.2779,3.2787,3.2805,3.2821,3.2829,3.2822,3.278,3.2776,3.2788,3.2797,3.2806,3.2798,3.2601,3.277,3.2769,3.2767,3.2767,3.2766,3.2866,3.2893,3.2884,3.2901,3.2898,3.2901,3.2924,3.2906,3.2922,3.2932,3.2907,3.2934,3.2927,3.2932,3.293,3.295,3.292,3.2939,3.2943,3.2947,3.2954,3.2806,3.2952,3.2951,3.2951,3.295,3.295,0,3.3018,3.3009,3.3026,3.3029,3.3043,3.3005,3.3005,3.3019,3.3042,3.3039,3.3051,3.3074,3.309,3.307,3.3082,3.3102,3.3083,3.3106,3.3102,3.3101,3.2981,3.2968,3.3121,3.3121,3.3121,3.3121,3.3121,3.3121,3.3098,3.3142,3.3123,3.3165,3.3156,3.318,3.3183,3.3185,3.3182,3.321,3.3223,3.321,3.32,3.3211,3.3224,3.3217,3.3223,3.3252,3.3239,3.3126,3.311,3.3093,3.308,3.3254,3.3255,3.3356,3.3357,3.3357]},{"header":{"parameterUnit":"m.s-1","parameterCategory":1,"la1":30.2991,"la2":30.254,"lo1":-89.0895,"lo2":-89.0444,"dy":0.0017,"dx":0.0017,"nx":28,"ny":28,"refTime":"2023-08-09T09:00:00:Z","depth":0,"parameterNumber":3,"parameterNumberName":"V-component_of_WINDS"},"data":[0,0,0,0,0,0,0,0,0,0,0,0,0,0,0,0,0,0,0,0,0,0,0,0,0,0,0,0,0,0,0,0,0,0,0,0,0,0,0,0,0,0,0,0,0,0,0,0,0,0,0,0,0,0,0,0,0,0,3.0627,3.0628,0,3.072,3.0721,3.0722,3.0713,3.0712,3.071,3.0709,3.0801,3.0805,3.0809,0,0,0,0,0,0,0,0,0,0,0,0,0,3.0439,3.0443,3.0627,3.0629,3.063,3.072,3.0721,3.0722,3.0713,3.0712,3.071,3.0708,3.08,3.0805,3.0809,0,0,0,0,0,0,0,0,0,0,0,0,0,3.0525,3.0444,3.0627,3.0636,3.0638,3.072,3.0721,3.0723,3.0714,3.0712,3.0709,3.0707,3.0799,3.0804,3.081,3.0888,0,0,3.0827,3.083,0,0,0,0,0,0,0,0,3.052,3.0532,3.0634,3.0636,3.0638,3.0703,3.0689,3.0778,3.0714,3.0685,3.0709,3.0706,3.077,3.0778,3.08,3.0892,3.0896,3.0828,3.0831,3.0833,3.0835,0,0,0,0,0,0,0,3.0514,3.0528,3.0664,3.0635,3.0638,3.0634,3.0644,3.0706,3.0738,3.0687,3.0687,3.0698,3.0771,3.0795,3.0802,3.0897,3.0827,3.0832,3.0836,3.0838,3.1056,3.1058,0,0,0,0,0,0,3.0507,3.0523,3.0661,3.0667,3.0573,3.064,3.0651,3.0684,3.0738,3.0744,3.07,3.0697,3.0786,3.0795,3.0805,3.0899,3.0833,3.0839,3.0842,3.1053,3.1056,3.1059,0,0,0,0,0,0,3.0503,3.0519,3.0657,3.0595,3.0612,3.0645,3.0683,3.0687,3.0711,3.0747,3.0753,3.0718,3.0785,3.0797,3.0867,3.0902,3.0841,3.0846,3.1051,3.1054,3.1058,3.1087,0,0,0,0,0,0,3.0497,3.0518,3.0549,3.0596,3.0616,3.0719,3.0685,3.069,3.0721,3.0719,3.0766,3.0772,3.0784,3.0859,3.0873,3.0909,3.0851,3.1048,3.1052,3.1057,3.1083,3.1091,3.1098,0,0,0,0,0,3.0491,3.0553,3.055,3.0567,3.0655,3.0721,3.0732,3.0745,3.0724,3.0754,3.0777,3.077,3.0896,3.0866,3.0882,3.092,3.1046,3.1051,3.1056,3.108,3.109,3.1098,0,0,0,0,0,0,3.0509,3.056,3.0557,3.0637,3.0675,3.0719,3.0758,3.0756,3.08,3.0796,3.081,3.082,3.089,3.0912,3.0878,3.0997,3.0968,3.0976,3.098,3.099,3.0997,3.099,3.0856,0,0,0,0,0,3.0522,3.0572,3.0614,3.068,3.0699,3.0725,3.0754,3.0761,3.0801,3.0816,3.0845,3.0882,3.093,3.0961,3.1008,3.1086,3.1096,3.112,3.1128,3.1134,3.1141,3.1182,3.1193,3.1076,3.1076,3.1076,0,0,3.055,3.0584,3.0615,3.0684,3.0714,3.0764,3.0739,3.0793,3.083,3.0824,3.0892,3.0914,3.0957,3.1031,3.1065,3.1051,3.1175,3.1141,3.1145,3.1149,3.1189,3.12,3.121,3.108,3.1079,3.1079,0,0,3.0627,3.0658,3.0716,3.0746,3.0792,3.0809,3.0823,3.0868,3.0883,3.0951,3.0947,3.099,3.1073,3.1103,3.1129,3.1216,3.121,3.123,3.1269,3.131,3.1319,3.1327,3.1356,3.1367,3.1237,3.1238,3.1238,0,3.0655,3.0732,3.0746,3.0801,3.083,3.0828,3.0886,3.0915,3.0973,3.0993,3.0977,3.108,3.1108,3.1189,3.121,3.1232,3.1247,3.1225,3.1317,3.1325,3.1333,3.1361,3.1372,3.124,3.1239,3.1239,3.1239,0,3.0764,3.0817,3.0858,3.0914,3.0949,3.1005,3.1026,3.1059,3.1063,3.1081,3.1149,3.1184,3.1236,3.1256,3.126,3.1337,3.1326,3.1314,3.1284,3.1346,3.1372,3.1383,3.1243,3.1242,3.1241,3.1241,0,0,3.0854,3.0917,3.0932,3.0957,3.1007,3.1048,3.1103,3.1155,3.1182,3.1222,3.1267,3.1337,3.1325,3.1354,3.1362,3.1398,3.1462,3.138,3.1381,3.1393,3.1546,3.1555,3.1567,3.1459,3.1461,3.1463,3.1542,0,3.0934,3.1033,3.1046,3.1133,3.1181,3.1179,3.1227,3.1262,3.128,3.1322,3.1342,3.1391,3.1372,3.1389,3.1425,3.1447,3.1493,3.1441,3.15,3.1502,3.1488,3.1582,3.1591,3.1665,3.1553,3.1555,3.1556,0,3.1041,3.1084,3.1176,3.1218,3.1238,3.1281,3.1329,3.137,3.1409,3.142,3.1452,3.1455,3.1511,3.148,3.1555,3.152,3.1545,3.1559,3.1562,3.1567,3.1532,3.1588,3.1689,3.1699,3.1573,3.1571,3.157,0,3.1096,3.1177,3.1242,3.1263,3.1314,3.1344,3.1367,3.1404,3.1434,3.1475,3.1494,3.1542,3.1567,3.1603,3.1618,3.1594,3.1692,3.1663,3.1701,3.1701,3.1721,3.172,3.1826,3.1739,3.1739,3.1739,3.1739,0,3.1183,3.1239,3.1267,3.1306,3.1368,3.1383,3.1443,3.1464,3.1497,3.154,3.1541,3.1581,3.1599,3.1641,3.1653,3.1713,3.1725,3.1734,3.1736,3.1734,3.1732,3.1749,3.1744,3.1742,3.1741,3.1741,3.174,0,3.1254,3.1276,3.1346,3.1388,3.14,3.1444,3.148,3.1517,3.1535,3.1589,3.1603,3.163,3.168,3.1698,3.1759,3.1767,3.1836,3.1835,3.1823,3.1823,3.186,3.1856,3.1981,3.1997,3.19,3.1901,3.1902,0,3.1308,3.1351,3.1398,3.1427,3.1451,3.1498,3.1528,3.1543,3.1575,3.1622,3.1654,3.1703,3.1744,3.1823,3.1848,3.1894,3.1893,3.1933,3.19,3.1895,3.1892,3.1889,3.1892,3.1939,3.194,3.1941,3.1942,0,3.1401,3.1409,3.1453,3.1501,3.1537,3.1575,3.1612,3.1635,3.1656,3.1691,3.1742,3.1773,3.1835,3.1884,3.1931,3.1953,3.1951,3.1952,3.1963,3.196,3.1951,3.1955,3.1839,3.1949,3.1948,3.1948,3.1947,3.1947,3.1464,3.1501,3.154,3.1589,3.1618,3.1652,3.1689,3.1712,3.1755,3.1807,3.1813,3.1868,3.1904,3.1967,3.1991,3.2033,3.2022,3.2039,3.2043,3.2046,3.2048,3.1945,3.2042,3.2042,3.2042,3.2042,3.2041,0,3.1555,3.158,3.1625,3.1676,3.1714,3.1709,3.1749,3.1781,3.1829,3.1864,3.1904,3.1962,3.2009,3.2037,3.2084,3.2112,3.2112,3.2124,3.2122,3.2126,3.2056,3.2041,3.2123,3.2123,3.2123,3.2123,3.2123,3.2123,3.1607,3.1669,3.1682,3.1758,3.1782,3.1836,3.1859,3.189,3.1918,3.1983,3.2022,3.2041,3.2073,3.2122,3.2164,3.2171,3.2188,3.22,3.2206,3.214,3.2131,3.2123,3.2109,3.2204,3.2204,3.2273,3.2273,3.2274]}]]